SCP
4 4 3 4 4 5 5 5 5 4 3 2 2 2 2 2 2 2 2 2 1 1 1 1 1 1 1 1 1 1 1 1 1 1 0 0 0 0 0 0 1 1 1
2 2 2 3 3 3 4 4 3 3 2 2 2 2 2 2 2 1 1 1 1 1 1 1 1 1 1 1 1 1 1 1 1 0 0 0 0 0 0 0 1 1 1
1 1 1 1 2 2 2 2 2 2 2 2 1 1 1 1 1 1 1 1 1 1 1 1 0 0 0 0 0 0 0 0 0 0 0 0 0 0 0 0 0 1 1
1 1 1 1 1 1 1 1 2 2 2 1 1 1 1 1 1 1 1 1 1 0 1 1 0 0 0 0 0 0 0 0 0 0 0 0 0 0 0 0 0 0 1
1 1 1 1 1 1 1 1 2 2 1 1 1 1 1 1 1 1 1 0 0 0 0 0 0 1 1 0 0 0 0 0 0 0 0 0 0 0 0 0 0 0 0
1 1 1 1 1 1 1 1 1 1 1 1 1 1 0 0 0 0 0 0 0 0 0 0 0 0 0 0 0 0 0 0 0 0 0 0 0 0 0 0 0 0 0
1 1 0 0 1 1 1 1 1 1 1 1 1 1 0 0 0 0 0 0 0 0 0 0 0 0 0 0 0 0 0 0 0 0 0 0 0 0 0 0 0 0 0
1 1 0 0 0 1 1 1 1 1 1 1 1 0 0 0 0 0 0 0 0 0 0 0 0 0 0 0 0 0 0 0 0 0 0 0 0 0 0 0 0 0 0
1 1 0 0 0 0 0 0 0 0 0 0 0 0 0 0 0 0 0 0 0 0 0 0 0 0 0 0 0 0 0 0 0 0 0 0 0 0 0 0 0 0 0
0 0 0 0 0 0 0 0 0 0 0 0 0 0 0 0 0 0 0 0 0 0 0 0 0 0 0 0 0 0 0 0 0 0 0 0 0 0 0 0 0 0 0
0 0 0 0 0 0 0 0 0 0 0 0 0 0 0 0 0 0 0 0 0 0 0 0 0 0 0 0 0 0 0 0 0 0 0 0 0 0 0 0 0 0 0
0 0 0 0 0 0 0 0 0 0 0 0 0 0 0 0 0 0 0 0 0 0 0 0 0 0 0 0 0 0 0 0 0 0 0 0 0 0 0 0 0 0 0
0 0 0 0 0 0 0 0 0 0 0 0 0 0 0 0 0 0 0 0 0 0 0 0 0 0 0 0 0 0 0 0 0 0 0 0 0 0 0 0 0 0 0
0 0 0 0 0 0 0 0 0 0 0 0 0 0 0 0 0 0 0 0 0 0 0 0 0 0 0 0 0 0 0 0 0 0 0 0 0 0 0 0 0 0 0
0 0 0 0 0 0 0 0 0 0 0 0 0 0 0 0 0 0 0 0 0 0 0 0 0 0 0 0 0 0 0 0 0 0 0 0 0 0 0 0 0 0 0
0 0 0 0 0 0 0 0 0 0 0 0 0 0 0 0 0 0 0 0 0 0 0 0 0 0 0 0 0 0 0 0 0 0 0 0 0 0 0 0 0 0 0
0 0 0 0 0 0 0 0 0 0 0 0 0 0 0 0 0 0 0 0 0 0 0 0 0 0 0 0 0 0 0 0 0 0 0 0 0 0 0 0 0 0 0
0 0 0 0 0 0 0 0 0 0 0 0 0 0 0 0 0 0 0 0 0 0 0 0 0 0 0 0 0 0 0 0 0 0 0 0 0 0 0 0 0 0 0
0 0 0 0 0 0 0 0 0 0 0 0 0 0 0 0 0 0 0 0 0 0 0 0 0 0 0 0 0 0 0 0 0 0 0 0 0 0 0 0 0 0 0
0 0 0 0 0 0 0 0 0 0 0 0 0 0 0 0 0 0 0 0 0 0 0 0 0 0 0 0 0 0 0 0 0 0 0 0 0 0 0 0 0 0 0
0 0 0 0 0 0 0 0 0 0 0 0 0 0 0 0 0 0 0 0 0 0 0 0 0 0 0 0 0 0 0 0 0 0 0 0 0 0 0 0 0 0 0
0 0 0 0 0 0 0 0 0 0 0 0 0 0 0 0 0 0 0 0 0 0 0 0 0 0 0 0 0 0 0 0 0 0 0 0 0 0 0 0 0 0 0
0 0 0 0 0 0 0 0 0 0 0 0 0 0 0 0 0 0 0 0 0 0 0 0 0 0 0 0 0 0 0 0 0 0 0 0 0 0 0 0 0 0 0
0 0 0 0 0 0 0 0 0 0 0 0 0 0 0 0 0 0 0 0 0 0 0 0 0 0 0 0 0 0 0 0 0 0 0 0 0 0 0 0 0 0 0
0 0 0 0 0 0 0 0 0 0 0 0 0 0 0 0 0 0 0 0 0 0 0 0 0 0 0 0 0 0 0 0 0 0 0 0 0 0 0 0 0 0 0
0 0 0 0 0 0 0 0 0 0 0 0 0 0 0 0 0 0 0 0 0 0 0 0 0 0 0 0 0 0 0 0 0 0 0 0 0 0 0 0 0 0 0
Wind_Speed
4 5 5 6 5 4 4 3 3 2 2 2 2 1 1 1 1 1 1 1 2 2 2 2 2 1 2 3 3 2 3 3 2 2 3 4 5 6 6 6 6 8 10
3 4 4 4 4 4 4 4 4 3 3 2 2 1 1 1 0 1 1 1 1 2 2 3 2 2 2 2 2 2 2 2 2 2 1 2 3 4 6 5 7 8 7
5 5 5 5 5 5 6 5 5 4 4 3 2 1 2 2 2 2 2 2 3 3 3 4 3 3 2 2 3 2 2 2 2 2 2 2 3 3 2 5 6 6 6
5 5 6 6 6 6 6 5 5 4 3 3 2 2 1 1 2 2 2 3 4 4 4 4 4 4 3 3 3 2 2 2 2 2 2 2 2 2 3 3 3 5 6
6 7 6 6 5 4 4 3 3 3 2 3 3 2 1 2 2 2 3 4 4 4 4 4 4 4 4 4 4 3 3 2 2 2 2 2 2 2 2 3 2 2 3
6 5 4 2 1 1 2 2 3 2 2 2 2 2 3 3 3 3 4 4 3 3 4 4 3 4 4 4 5 4 4 3 3 2 2 2 2 2 2 3 2 2 2
3 2 2 2 2 3 3 3 3 1 1 1 1 2 3 4 4 4 4 3 3 3 4 3 3 3 4 5 4 4 4 4 4 4 3 2 2 2 2 2 2 2 2
1 2 3 3 3 3 3 2 2 1 1 1 2 3 3 2 3 4 3 4 4 4 5 4 4 4 4 5 5 4 5 4 5 5 4 3 3 2 2 2 1 2 2
4 4 4 4 4 3 2 2 2 0 1 2 3 3 3 3 4 4 4 4 4 4 5 4 4 4 5 5 5 4 5 5 5 5 5 3 3 3 3 2 2 2 2
4 4 3 3 3 2 2 2 2 1 2 2 3 2 3 4 4 4 5 5 5 5 5 5 5 5 5 5 5 5 6 6 6 4 5 4 3 3 3 3 3 3 3
4 3 2 2 2 2 1 0 1 2 2 3 3 3 4 4 4 4 5 5 5 5 5 6 6 6 6 6 5 6 6 7 7 6 6 7 5 4 4 3 3 3 3
4 3 2 1 1 0 1 2 2 3 3 3 3 4 4 4 5 5 6 6 6 6 6 6 6 7 7 6 6 7 7 7 8 8 7 7 5 6 4 4 5 4 4
3 2 1 0 1 2 3 3 3 3 4 4 4 5 5 5 6 6 6 6 6 6 6 6 6 7 7 7 7 7 7 8 8 8 8 8 7 6 5 5 5 4 4
3 2 1 2 3 3 4 4 4 4 4 4 4 5 6 6 6 6 6 6 6 7 7 7 7 7 8 8 8 7 8 8 8 8 9 8 8 8 7 6 6 5 4
2 2 2 3 3 4 4 4 4 5 4 4 5 6 6 6 6 6 7 7 7 8 7 7 7 7 7 8 8 8 8 7 8 8 8 9 11 12 10 7 6 6 5
2 2 2 3 4 4 4 4 4 5 4 5 6 6 6 6 6 7 7 7 7 8 7 7 8 8 9 11 12 9 6 6 7 7 7 8 10 12 14 14 13 11 8
3 3 3 4 4 4 3 4 4 5 5 5 6 6 6 7 7 8 7 8 8 8 8 8 8 9 10 14 15 15 8 7 7 7 7 8 8 9 7 11 14 13 14
3 3 4 4 3 3 3 3 4 5 5 6 6 6 6 7 8 7 8 8 7 8 8 9 9 9 11 14 15 15 10 8 8 8 8 8 7 7 7 6 7 7 8
4 4 3 3 3 3 4 3 4 5 5 6 7 7 7 8 9 9 9 8 8 8 8 8 9 9 11 13 14 13 6 6 8 8 8 8 8 10 11 7 6 6 6
2 2 2 2 2 4 3 3 5 5 6 7 7 8 7 8 9 10 9 8 7 8 8 8 8 8 9 11 13 11 5 6 6 6 6 10 11 12 13 9 8 7 6
2 1 1 2 4 4 3 4 5 6 6 7 7 8 8 8 9 8 7 7 7 7 7 8 7 7 8 9 11 10 6 6 5 5 5 6 12 14 14 11 8 9 7
1 1 1 3 4 3 3 4 6 6 6 6 7 8 9 8 8 8 8 7 6 6 6 6 6 5 5 6 7 9 9 8 5 5 5 6 11 13 13 10 9 11 9
2 2 2 3 4 4 3 4 5 5 6 7 8 9 9 8 7 7 8 7 5 4 5 4 5 5 4 4 6 6 7 8 5 4 6 6 8 9 8 10 11 8 5
2 2 2 3 5 5 4 4 5 5 5 7 8 8 8 9 8 6 5 5 5 4 4 4 4 4 4 3 3 3 2 4 4 2 3 4 5 5 5 6 6 5 5
3 2 2 4 5 5 4 4 4 4 6 7 7 8 7 7 8 7 6 5 5 5 5 4 4 4 4 4 6 3 2 2 3 3 2 2 2 3 3 3 4 4 4
3 2 3 4 5 4 4 4 4 4 5 6 7 6 6 7 6 7 7 7 7 8 7 7 5 4 5 7 6 4 3 3 5 4 3 3 3 4 4 5 4 4 4
Wind_Direction
131 125 125 123 116 111 110 106 99 92 86 70 62 49 6 338 351 321 251 215 204 199 195 220 233 227 230 248 261 265 264 255 230 238 268 263 242 232 229 223 220 219 216
144 146 144 143 142 148 151 150 152 146 139 143 154 162 185 267 285 335 341 295 255 241 224 216 223 226 228 253 260 251 260 262 219 199 237 278 281 249 234 217 216 219 215
185 174 170 175 172 177 182 177 181 171 164 154 122 67 40 14 8 349 324 299 280 265 252 236 226 223 209 225 237 231 222 252 264 217 203 223 255 290 268 230 223 212 207
198 191 189 192 196 201 192 184 181 174 169 144 121 126 135 219 253 262 274 292 287 278 268 250 236 225 216 217 227 212 205 213 245 252 228 221 219 262 300 293 238 216 210
201 199 199 198 198 192 177 171 161 161 161 144 141 139 172 223 253 276 293 296 295 289 284 264 242 231 223 220 218 214 214 204 212 224 236 238 235 224 244 286 298 270 231
206 204 199 171 155 114 116 125 132 148 163 158 162 174 210 241 271 286 292 294 292 290 294 286 255 242 231 224 220 216 215 217 214 213 213 210 213 224 216 248 269 264 261
187 173 146 109 95 95 108 120 131 163 203 194 217 228 235 242 252 264 266 275 281 282 284 291 267 256 243 237 226 221 224 221 220 217 212 215 213 212 212 221 258 269 275
142 115 115 115 110 110 105 113 129 169 240 243 260 264 259 251 254 255 247 251 250 256 266 270 262 258 256 248 231 228 229 226 228 229 218 212 213 207 206 200 212 269 285
123 115 111 106 100 97 93 112 122 144 278 274 273 273 273 264 261 264 260 259 258 262 265 264 262 259 256 252 238 231 233 226 228 230 226 220 218 204 202 202 194 208 239
119 107 104 104 102 108 108 100 124 216 270 284 282 284 280 275 270 272 273 271 269 269 275 271 265 262 256 249 242 239 235 226 228 225 226 227 222 210 199 200 200 200 208
131 128 129 122 117 112 118 143 289 292 295 291 286 292 289 287 286 281 277 275 272 271 268 266 265 262 259 252 243 240 237 230 231 228 223 228 218 208 205 199 199 205 204
146 148 143 122 99 350 290 283 284 286 282 282 283 283 282 284 284 280 277 275 273 271 266 265 265 264 263 252 243 246 247 233 232 230 223 226 221 214 206 199 198 202 201
142 134 115 273 269 275 276 277 281 277 279 284 288 289 288 286 281 277 275 274 271 270 269 265 261 261 261 257 248 241 240 235 232 227 220 219 211 213 208 205 203 202 205
150 156 216 267 269 270 270 274 275 273 282 289 290 287 284 279 275 275 275 274 271 268 265 260 257 256 256 256 252 246 241 238 235 228 221 215 206 206 203 205 207 199 198
151 167 214 250 265 274 279 276 275 283 287 290 287 281 278 279 281 283 281 278 275 276 266 264 263 259 258 257 251 243 246 239 238 234 226 220 217 212 203 201 196 193 192
175 201 241 262 274 277 276 279 281 283 284 286 284 282 284 288 288 285 282 281 278 274 269 265 263 262 267 268 262 250 243 235 232 234 231 230 229 225 216 212 198 188 186
201 236 259 260 267 262 259 270 274 283 294 291 289 291 291 291 288 290 292 284 280 275 272 267 262 260 259 259 259 255 243 230 228 228 226 234 230 217 214 217 211 203 199
217 249 260 266 261 252 261 273 287 298 300 297 296 296 294 292 290 288 285 282 278 276 273 271 266 263 264 260 254 251 245 235 230 226 219 217 224 219 207 206 204 201 203
213 231 243 240 244 264 275 294 304 305 303 300 299 296 295 296 296 293 289 284 282 282 277 273 269 265 267 262 255 245 230 229 232 228 220 213 217 220 207 193 195 201 211
212 231 252 253 275 277 281 300 302 303 300 296 296 295 294 294 294 291 288 284 281 279 282 280 274 267 266 265 255 238 218 224 229 226 221 219 215 215 203 191 188 200 206
207 216 269 279 274 275 282 295 297 292 288 293 298 299 297 294 290 287 286 289 288 288 287 287 286 279 273 272 261 240 212 212 217 218 216 219 214 210 203 192 188 201 191
238 257 274 287 282 278 282 293 290 284 293 300 302 302 300 299 305 297 295 294 293 294 295 295 298 294 292 284 273 250 221 207 206 214 213 213 206 202 197 193 194 195 182
243 255 252 287 293 284 275 282 283 292 302 306 305 303 304 300 296 293 295 300 299 293 295 297 299 303 306 309 310 283 239 216 203 210 209 207 200 191 189 195 189 181 169
245 253 269 292 293 287 281 269 279 292 303 306 305 304 305 305 303 296 287 288 290 292 295 296 299 302 306 315 328 319 274 218 208 205 195 180 168 158 160 168 176 172 174
238 239 252 270 278 285 284 281 282 297 305 306 304 305 301 299 302 298 285 278 266 252 264 273 276 292 302 304 307 293 261 213 195 160 135 126 140 158 155 153 163 170 168
226 244 261 268 278 286 285 285 284 295 303 307 307 304 303 303 301 302 304 286 269 269 259 249 251 266 271 299 308 292 266 235 183 158 155 164 172 177 177 175 177 178 181